User: anonymous
Location: Oshawa
(43.9000°N, 78.8670°W)
Time: 00:36:29
(UTC-04:00)
Language:

Iridium 46 - Orbit

View from above orbital plane
View from above orbital plane
View from above satellite
View from above satellite

Ground track
Ground track

The orbit data is extracted from the following two-line orbital elements,

1 24905U 97043C   14245.25426748  .00000284  00000-0  94385-4 0  9770
2 24905 086.3996 321.8250 0002421 110.1449 250.0007 14.34219178891780
Epoch (UTC): 02 September 2014 06:06:08
Eccentricity: 0.0002421
inclination: 86.3996°
perigee height: 776 km
apogee height: 779 km
right ascension of ascending node: 321.8250°
argument of perigee: 110.1449°
revolutions per day: 14.34219178
mean anomaly at epoch: 250.0007°
orbit number at epoch: 89178

The dashed part of the orbit path shows where the satellite is in the earth's shadow,  

DLR